User: anonymous   Login
Location: Unspecified
(0.0000°N, 0.0000°E)
Time: 14:39:23
(UTC+00:00)
Language:

NOAA 18 - Orbit

View from above orbital plane
View from above orbital plane
View from above satellite
View from above satellite

Ground track
Ground track

The orbit data is extracted from the following two-line orbital elements,

1 28654U 05018A   19294.80752586 +.00000061 +00000-0 +57938-4 0  9998
2 28654 099.0816 343.5652 0014357 182.1911 177.9199 14.12460488743084
Epoch (UTC): 21 October 2019 19:22:50
Eccentricity: 0.0014357
inclination: 99.0816°
perigee height: 840 km
apogee height: 861 km
right ascension of ascending node: 343.5652°
argument of perigee: 182.1911°
revolutions per day: 14.12460488
mean anomaly at epoch: 177.9199°
orbit number at epoch: 74308

The dashed part of the orbit path shows where the satellite is in the earth's shadow,  

DLR